TimeEDT,TemperatureF,Dew PointF,Humidity,Sea Level PressureIn,VisibilityMPH,Wind Direction,Wind SpeedMPH,Gust SpeedMPH,PrecipitationIn,Events,Conditions,WindDirDegrees,DateUTC
12:43 AM,44.6,42.8,93,30.37,6.0,Calm,Calm,-,N/A,,Mostly Cloudy,0,2013-10-14 04:43:00
12:54 AM,44.1,43.0,96,30.34,7.0,Calm,Calm,-,N/A,,Mostly Cloudy,0,2013-10-14 04:54:00
1:26 AM,42.8,42.8,100,30.37,8.0,Calm,Calm,-,N/A,,Scattered Clouds,0,2013-10-14 05:26:00
1:54 AM,44.1,43.0,96,30.33,9.0,Calm,Calm,-,N/A,,Clear,0,2013-10-14 05:54:00
2:04 AM,42.8,41.0,93,30.36,1.8,Calm,Calm,-,N/A,,Clear,0,2013-10-14 06:04:00
2:13 AM,42.8,41.0,93,30.36,0.8,Calm,Calm,-,N/A,,Mist,0,2013-10-14 06:13:00
2:22 AM,42.8,39.2,87,30.35,1.2,Calm,Calm,-,N/A,,Partly Cloudy,0,2013-10-14 06:22:00
2:25 AM,42.8,39.2,87,30.35,3.0,Calm,Calm,-,N/A,,Clear,0,2013-10-14 06:25:00
2:30 AM,42.8,39.2,87,30.35,1.5,Calm,Calm,-,N/A,,Partly Cloudy,0,2013-10-14 06:30:00
2:44 AM,42.8,41.0,93,30.34,3.0,Calm,Calm,-,N/A,,Partly Cloudy,0,2013-10-14 06:44:00
2:54 AM,42.1,39.9,92,30.32,5.0,Calm,Calm,-,N/A,,Partly Cloudy,0,2013-10-14 06:54:00
3:07 AM,41.0,39.2,93,30.34,1.2,Calm,Calm,-,N/A,,Clear,0,2013-10-14 07:07:00
3:12 AM,41.0,39.2,93,30.34,0.5,Calm,Calm,-,N/A,Fog,Fog,0,2013-10-14 07:12:00
3:21 AM,42.8,39.2,87,30.34,1.5,Calm,Calm,-,N/A,,Partly Cloudy,0,2013-10-14 07:21:00
3:28 AM,41.0,39.2,93,30.34,6.0,Calm,Calm,-,N/A,,Clear,0,2013-10-14 07:28:00
3:54 AM,41.0,39.0,93,30.31,6.0,Calm,Calm,-,N/A,,Clear,0,2013-10-14 07:54:00
3:58 AM,41.0,39.2,93,30.33,1.5,Calm,Calm,-,N/A,,Clear,0,2013-10-14 07:58:00
4:13 AM,39.2,39.2,100,30.33,3.0,Calm,Calm,-,N/A,,Clear,0,2013-10-14 08:13:00
4:25 AM,39.2,37.4,93,30.34,1.5,Calm,Calm,-,N/A,,Partly Cloudy,0,2013-10-14 08:25:00
4:27 AM,39.2,37.4,93,30.34,0.5,Calm,Calm,-,N/A,Fog,Fog,0,2013-10-14 08:27:00
4:43 AM,41.0,39.2,93,30.34,0.8,Calm,Calm,-,N/A,,Mist,0,2013-10-14 08:43:00
4:54 AM,39.9,39.0,97,30.32,0.5,Calm,Calm,-,N/A,Fog,Fog,0,2013-10-14 08:54:00
5:12 AM,39.2,39.2,100,30.33,0.2,Calm,Calm,-,N/A,Fog,Fog,0,2013-10-14 09:12:00
5:23 AM,39.2,39.2,100,30.33,0.2,Calm,Calm,-,N/A,Fog,Fog,0,2013-10-14 09:23:00
5:54 AM,39.9,39.9,100,30.33,0.2,Calm,Calm,-,N/A,Fog,Fog,0,2013-10-14 09:54:00
6:30 AM,41.0,41.0,100,30.34,0.2,Calm,Calm,-,N/A,Fog,Fog,0,2013-10-14 10:30:00
6:54 AM,41.0,41.0,100,30.33,0.2,Calm,Calm,-,N/A,Fog,Fog,0,2013-10-14 10:54:00
7:07 AM,41.0,39.2,93,30.34,0.2,Calm,Calm,-,N/A,Fog,Fog,0,2013-10-14 11:07:00
7:54 AM,41.0,41.0,100,30.34,0.2,Calm,Calm,-,N/A,Fog,Fog,0,2013-10-14 11:54:00
8:15 AM,42.8,42.8,100,30.34,0.5,Calm,Calm,-,N/A,Fog,Fog,0,2013-10-14 12:15:00
8:25 AM,42.8,42.8,100,30.35,1.5,Calm,Calm,-,N/A,,Overcast,0,2013-10-14 12:25:00
8:34 AM,44.6,42.8,93,30.34,2.5,Calm,Calm,-,N/A,,Overcast,0,2013-10-14 12:34:00
8:37 AM,44.6,44.6,100,30.34,3.0,Calm,Calm,-,N/A,,Overcast,0,2013-10-14 12:37:00
8:45 AM,44.6,44.6,100,30.34,3.0,Calm,Calm,-,N/A,,Overcast,0,2013-10-14 12:45:00
8:54 AM,44.1,43.0,96,30.34,3.0,Calm,Calm,-,N/A,,Overcast,0,2013-10-14 12:54:00
9:04 AM,44.6,44.6,100,30.35,2.5,Calm,Calm,-,N/A,,Overcast,0,2013-10-14 13:04:00
9:12 AM,44.6,44.6,100,30.35,4.0,Calm,Calm,-,N/A,,Overcast,0,2013-10-14 13:12:00
9:20 AM,44.6,44.6,100,30.35,5.0,Calm,Calm,-,N/A,,Overcast,0,2013-10-14 13:20:00
9:38 AM,46.4,46.4,100,30.35,8.0,Calm,Calm,-,N/A,,Scattered Clouds,0,2013-10-14 13:38:00
9:54 AM,48.9,46.9,93,30.33,10.0,Calm,Calm,-,N/A,,Clear,0,2013-10-14 13:54:00
10:54 AM,55.0,46.9,74,30.31,10.0,Variable,3.5,-,N/A,,Mostly Cloudy,0,2013-10-14 14:54:00
11:54 AM,57.9,46.9,67,30.29,10.0,Calm,Calm,-,N/A,,Overcast,0,2013-10-14 15:54:00
12:54 PM,61.0,46.9,60,30.25,10.0,Calm,Calm,-,N/A,,Overcast,0,2013-10-14 16:54:00
1:54 PM,64.0,48.0,56,30.23,10.0,Variable,4.6,-,N/A,,Overcast,0,2013-10-14 17:54:00
2:54 PM,66.0,46.9,50,30.21,10.0,WSW,4.6,-,N/A,,Clear,240,2013-10-14 18:54:00
3:54 PM,66.0,48.9,54,30.20,10.0,WNW,6.9,-,N/A,,Clear,290,2013-10-14 19:54:00
4:54 PM,64.9,48.9,56,30.20,10.0,NW,5.8,-,N/A,,Overcast,320,2013-10-14 20:54:00
5:54 PM,62.1,50.0,65,30.23,10.0,West,5.8,-,N/A,,Overcast,260,2013-10-14 21:54:00
6:54 PM,60.1,50.0,69,30.24,10.0,West,3.5,-,N/A,,Overcast,260,2013-10-14 22:54:00
7:54 PM,59.0,48.9,69,30.25,10.0,WSW,3.5,-,N/A,,Overcast,240,2013-10-14 23:54:00
8:54 PM,59.0,50.0,72,30.24,10.0,WNW,3.5,-,N/A,,Overcast,290,2013-10-15 00:54:00
9:54 PM,57.0,50.0,77,30.24,10.0,NNW,4.6,-,N/A,,Overcast,330,2013-10-15 01:54:00
10:54 PM,57.0,52.0,83,30.25,10.0,NW,3.5,-,N/A,,Overcast,310,2013-10-15 02:54:00
11:00 PM,57.2,51.8,82,30.28,10.0,NW,3.5,-,N/A,,Overcast,310,2013-10-15 03:00:00
11:54 PM,55.9,52.0,87,30.23,10.0,WNW,3.5,-,N/A,,Overcast,300,2013-10-15 03:54:00